Guymon, OK

1:28 AM CST on December 06, 2016 (GMT -0600)
Guymon Municipal

Weather History for KGUY - September, 2012

Change the Weather History Date:

Friday, September 7, 2012

  Actual Average Record
Temperature  
Mean Temperature 68 °F 74 °F  
Max Temperature 78 °F 88 °F 100 °F (1999)
Min Temperature 57 °F 60 °F 51 °F (2001)
Degree Days  
Heating Degree Days 0 0  
Month to date heating degree days 0 0  
Since 1 July heating degree days 0 1  
Cooling Degree Days 3 9  
Month to date cooling degree days 100 71  
Year to date cooling degree days 1814 1320  
Growing Degree Days 21 (Base 50)    
Moisture  
Dew Point 54 °F    
Average Humidity 63    
Maximum Humidity 87    
Minimum Humidity 38    
Precipitation  
Precipitation 0.00 in 0.06 in 0.20 in (2006)
Month to date precipitation T 0.43  
Year to date precipitation 9.02 15.20  
Snow  
Snow 0.00 in - - ()
Month to date snowfall 0.0  
Since 1 July snowfall 0.0  
Since 1 September snowfall 0.0  
Snow Depth 0.00 in    
Sea Level Pressure  
Sea Level Pressure 29.95 in    
Wind  
Wind Speed 15 mph (North)    
Max Wind Speed 37 mph    
Max Gust Speed 44 mph    
Visibility 10 miles    
Events      
T = Trace of Precipitation, MM = Missing Value Source: NWS Daily Summary

Daily Weather History Graph

Daily Weather History Graph

Search for Another Location

Airport or City:

Trip Planner

Search our weather history database for the weather conditions in past years. The results will help you decide how hot, cold, wet, or windy it might be!

Date:

Astronomy

Sep. 07, 2012 Rise Set
Actual Time 7:22 AM CDT 8:04 PM CDT
Civil Twilight 6:56 AM CDT 8:30 PM CDT
Nautical Twilight 6:25 AM CDT 9:01 PM CDT
Astronomical Twilight 5:53 AM CDT 9:33 PM CDT
Moon No Moon Rise 2:04 PM CDT (9/7)
Length of Visible Light 13h 34m
Length of Day
12h 42m
Waning Gibbous, 58% of the Moon is Illuminated
Sep 7
Waning Gibbous
Sep 8
Last Quarter
Sep 15
New
Sep 22
First Quarter
Sep 29
Full

Hourly Weather History & Observations

Time (CDT) Temp. Dew Point Humidity Pressure Visibility Wind Dir Wind Speed Gust Speed Precip Events Conditions
12:53 AM 73.0 °F 62.1 °F 68% 29.78 in 10.0 mi SW 15.0 mph - N/A   Clear
1:53 AM 71.1 °F 62.1 °F 73% 29.77 in 10.0 mi SSW 4.6 mph - N/A   Clear
2:53 AM 69.1 °F 62.1 °F 78% 29.75 in 10.0 mi WSW 8.1 mph - N/A   Clear
3:53 AM 66.9 °F 62.1 °F 84% 29.73 in 10.0 mi SW 6.9 mph - N/A   Clear
4:53 AM 66.0 °F 62.1 °F 87% 29.73 in 10.0 mi South 4.6 mph - N/A   Clear
5:53 AM 69.1 °F 62.1 °F 78% 29.75 in 10.0 mi East 4.6 mph - N/A   Clear
6:53 AM 66.9 °F 62.1 °F 84% 29.77 in 10.0 mi South 5.8 mph - N/A   Clear
7:53 AM 68.0 °F 62.1 °F 81% 29.81 in 10.0 mi WNW 3.5 mph - N/A   Clear
8:53 AM 73.0 °F 63.0 °F 71% 29.80 in 10.0 mi SW 9.2 mph - N/A   Clear
9:53 AM 75.0 °F 59.0 °F 57% 29.82 in 10.0 mi NW 27.6 mph 32.2 mph N/A   Clear
10:53 AM 78.1 °F 62.1 °F 58% 29.86 in 10.0 mi North 27.6 mph 36.8 mph N/A   Partly Cloudy
11:06 AM 77.0 °F 62.6 °F 61% 30.01 in 10.0 mi North 28.8 mph 36.8 mph N/A   Mostly Cloudy
11:53 AM 69.1 °F 50.0 °F 51% 29.94 in 10.0 mi North 32.2 mph 43.7 mph N/A   Overcast
12:15 PM 69.8 °F 48.2 °F 46% 30.08 in 10.0 mi North 29.9 mph 41.4 mph N/A   Overcast
12:53 PM 71.1 °F 46.9 °F 42% 29.98 in 10.0 mi NNE 27.6 mph 40.3 mph N/A   Overcast
1:53 PM 72.0 °F 45.0 °F 38% 30.00 in 10.0 mi NNE 31.1 mph 41.4 mph N/A   Overcast
2:53 PM 72.0 °F 46.0 °F 40% 30.02 in 10.0 mi NE 25.3 mph 41.4 mph N/A   Overcast
3:24 PM 69.8 °F 48.2 °F 46% 30.14 in 10.0 mi NNE 27.6 mph 36.8 mph N/A   Mostly Cloudy
3:53 PM 72.0 °F 48.9 °F 44% 30.03 in 10.0 mi NNE 26.5 mph 33.4 mph N/A   Mostly Cloudy
4:53 PM 75.0 °F 48.9 °F 40% 30.03 in 10.0 mi NNE 19.6 mph 28.8 mph N/A   Partly Cloudy
5:53 PM 73.0 °F 46.9 °F 39% 30.04 in 10.0 mi NNE 18.4 mph 27.6 mph N/A   Clear
6:53 PM 71.1 °F 46.9 °F 42% 30.07 in 10.0 mi NNE 19.6 mph - N/A   Clear
7:53 PM 68.0 °F 46.9 °F 47% 30.10 in 10.0 mi NNE 16.1 mph - N/A   Clear
8:53 PM 66.9 °F 48.0 °F 51% 30.12 in 10.0 mi NE 9.2 mph - N/A   Clear
9:53 PM 66.0 °F 48.9 °F 54% 30.15 in 10.0 mi NE 8.1 mph - N/A   Partly Cloudy
10:53 PM 64.9 °F 48.9 °F 56% 30.15 in 10.0 mi NNE 4.6 mph - N/A   Partly Cloudy
11:53 PM 61.0 °F 48.9 °F 64% 30.19 in 10.0 mi NNW 4.6 mph - N/A   Clear